AMOS 4

导读 | 豆包AI

AMOS-4是以色列Spacecom公司运营的民用通信卫星,由以色列航空航天工业公司研制,于2013年8月31日在哈萨克斯坦拜科努尔发射场,由俄罗斯天顶运载火箭发射入轨。该卫星定位于东经65度地球同步轨道,配备8个Ku波段和4个Ka波段转发器,可为中东、俄罗斯、亚洲、欧洲等区域提供通信、宽带互联网等服务,原设计寿命12年,目前仍在服役。

基本信息
目录编号:
39237
目录名称:
AMOS 4
国际标识:
2013-045A
轨道中心:
EARTH
卫星名称:
AMOS 4
卫星全名:
--
卫星状态:
在轨 (已飞行4568 天)
发射日期:
2013-08-31 UTC
国别 :
以色列 (IL)
星等 :
--
轨道信息
数据来源 国际轨道数据 AOE轨道数据
星历时间 2026-03-04T10:21:54+0800
7小时前
查看轨道信息
2026-03-04T07:00:00+0800
10小时前
查看轨道信息
半长轴 42164.644km 42164.588km
偏心率 0.000331 0.0003356
轨道倾角 0.012° 0.010°
近地点辐角 189.984° 179.478°
升交点赤经 158.972° 170.018°
平近点角 273.365° 222.210°
近地点 35772.55km 35772.3km
远地点 35800.464km 35800.602km
周期 1436.092分钟 1436.090分钟
每日圈数 1.002721 1.002723
详细信息
使用方式:
暂无
2D轨道图
3D轨道图
轨道高度分析图
轨道倾角分析图
轨道综合分析图
查看轨道综合分析图